Regional Weather Roundup
Issued by NWS

Home | Current Version | Previous Version | Graphics & Text | Print | Product List | Glossary On
Versions: 1 2 3 4 5 6 7 8 9 10 11 12 13 14 15 16 17 18 19 20 21 22 23 24 25 26 27
000
ASUS45 KTFX 291910
RWRMT
MONTANA REGIONAL WEATHER ROUNDUP
NATIONAL WEATHER SERVICE GREAT FALLS MT
100 PM MDT MON MAY 29 2017

NOTE: "FAIR" INDICATES FEW OR NO CLOUDS BELOW 12000 FEET WITH NO
SIGNIFICANT WEATHER AND/OR OBSTRUCTIONS TO VISIBILITY.

MTZ001>007-043-292000-
WEST OF THE DIVIDE

CITY           SKY/WX    TMP DP  RH WIND       PRES   REMARKS
KALISPELL      SUNNY     75  46  35 SE5       30.11F
MISSOULA       SUNNY     76  46  34 VRB5      30.13F
BUTTE          SUNNY     69  30  23 SE8       30.24F
MULLAN PASS    SUNNY     65  33  30 S6        30.24F
ANACONDA         N/A     72  32  23 E6        30.19F
DEER LODGE       N/A     72  30  21 SE6       30.21F
EUREKA           N/A     75  46  35 CALM      30.09F
HAMILTON         N/A     73  43  33 CALM      30.13F
PLAINS           N/A     78  52  40 CALM      30.09F
RONAN            N/A     74  44  34 NW3       30.16F
$$

MTZ008-052>055-292000-
SOUTHWEST MONTANA

CITY           SKY/WX    TMP DP  RH WIND       PRES   REMARKS
BOZEMAN        SUNNY     71  44  37 VRB3      30.22F
DILLON         SUNNY     70  41  34 NE8       30.22F
ENNIS          SUNNY     66  36  32 VRB5      30.28F
THREE FORKS      N/A     71  38  30 E1        30.19F
TWIN BRIDGES     N/A     69  36  29 SW5       30.19F
$$

MTZ009-010-012-014-046-048-049-054-292000-
EAST SLOPES AND CENTRAL MONTANA

CITY           SKY/WX    TMP DP  RH WIND       PRES   REMARKS
CUT BANK       SUNNY     69  40  34 SE5       30.17F
GREAT FALLS    SUNNY     72  45  37 CALM      30.17F
MALMSTROM AFB  SUNNY     69  49  47 NE3       30.17
HELENA         SUNNY     74  42  31 VRB5      30.17F
CHOTEAU          N/A     70  46  43 VRB3G13   30.19F
CONRAD           N/A     71  55  56 E5        30.18F
$$

MTZ011-013-016-021-045-047-050-051-292000-
NORTH CENTRAL MONTANA

CITY           SKY/WX    TMP DP  RH WIND       PRES   REMARKS
HAVRE          SUNNY     71  31  22 NE5       30.18F
LEWISTOWN      SUNNY     66  40  38 N8        30.22F
N BAR RANCH      N/A     66  41  39 N14       30.25S
CHINOOK          N/A     66  28  24 CALM      30.19F
FORT BENTON      N/A     72  37  28 MISG      30.18F
$$

MTZ017>020-022>027-061-062-292000-
NORTHEAST MONTANA

CITY           SKY/WX    TMP DP  RH WIND       PRES   REMARKS
GLASGOW        SUNNY     65  33  30 NW13G26   30.17F
JORDAN           N/A     67  27  22 NW12G23   30.18F
SIDNEY         MOSUNNY   64  33  31 NW21G29   30.12F
WOLF POINT     SUNNY     68  31  25 NW15G26   30.15F
MALTA          SUNNY     66  32  28 N8G15     30.18F
PLENTYWOOD       N/A     61  34  36 NW23G32   30.10F
POPLAR           N/A     63  32  31 N18       30.14F
SCOBEY           N/A     62  31  31 NW18      30.13S
$$

MTZ028>42-056>058-292000-
SOUTHCENTRAL AND SOUTHEAST MONTANA

CITY           SKY/WX    TMP DP  RH WIND       PRES   REMARKS
BAKER          MOSUNNY   63  31  30 NW17G31   30.15F
BILLINGS       MOSUNNY   70  39  32 NW6       30.21F
LIVINGSTON     SUNNY     70  39  32 NE3       30.22F
MILES CITY     SUNNY     68  28  22 NW16G28   30.17F
BIG TIMBER     SUNNY     66  37  34 NE7       30.25F
EKALAKA          N/A     60  32  34 NW15      30.14
FORSYTH          N/A     66  30  26 W8G20     30.18F
LAUREL           N/A     69  40  34 E1        30.18F
ROUNDUP          N/A     69  34  27 W7        30.10F
$$

REGIONAL REPORTS...DAKOTAS

CITY           SKY/WX    TMP DP  RH WIND       PRES   REMARKS
WILLISTON      PTSUNNY   66  34  30 NW18      30.10F
MINOT          CLOUDY    60  39  45 NW21G30   29.99F
DICKINSON      PTSUNNY   62  33  33 NW22G31   30.08S
BEACH            N/A     61  32  33 NW20G30   30.16F
CROSBY         PTSUNNY   61  34  36 NW23G31   30.07F
TIOGA          CLOUDY    57  34  41 NW26      30.08S
WATFORD CITY   PTSUNNY   59  34  38 NW21      30.08F
BISMARCK       CLOUDY    63  38  39 NW21G29   30.04S
GRAND FORKS    LGT RAIN  56  48  74 NW17G24   29.87R
FARGO          CLOUDY    59  48  67 NW12G23   29.88F
BUFFALO SD       N/A     63  35  35 NW26G32   30.08S
RAPID CITY     SUNNY     68  30  24 NW18G33   30.14F
$$

REGIONAL REPORTS...WYOMING/IDAHO/WASHINGTON

CITY           SKY/WX    TMP DP  RH WIND       PRES   REMARKS
GILLETTE       SUNNY     64  33  31 N16G26    30.20F
SHERIDAN       SUNNY     68  41  37 N15G21    30.22F
BUFFALO WY     SUNNY     64  35  34 N21G37    30.23F
CODY           SUNNY     66  39  37 NE9G16    30.26
YELLOWSTONE LA   N/A     55  30  38 VRB3      30.36F
IDAHO FALLS    MOSUNNY   73  38  27 VRB3      30.20F
SALMON         SUNNY     72  45  37 N5        30.12F
BOISE          SUNNY     83  41  22 VRB3      30.08F
SPOKANE        MOSUNNY   81  45  28 NE6       30.05F
$$

REGIONAL REPORTS...ALBERTA

CITY           SKY/WX    TMP DP  RH WIND       PRES   REMARKS
EDMONTON       SUNNY     66  34  30 SE10      30.19F
CALGARY        MOSUNNY   68  37  32 SE12G20   30.16F
LETHBRIDGE     MOSUNNY   73  43  33 SE9       30.14F
MEDICINE HAT   SUNNY     70  34  26 NE7       30.17F
WATERTON GATE    N/A     72  50  46 NE9         N/A
MILK RIVER       N/A     72  39  30 S7          N/A
$$

REGIONAL REPORTS...SASKATCHEWAN

CITY           SKY/WX    TMP DP  RH WIND       PRES   REMARKS
SWIFT CURRENT  SUNNY     63  30  29 N18G24    30.18F
REGINA         MOSUNNY   63  32  31 NW29G36   30.09F
SASKATOON      MOSUNNY   64  28  25 NW20G30   30.15F
VAL MARIE        N/A     64  30  27 NW10G17     N/A
ROCKGLEN         N/A     59  32  36 N14G22      N/A
ASSINIBOIA       N/A     66  30  26 E7          N/A
$$




USA.gov is the U.S. government's official web portal to all federal, state and local government web resources and services.